Location: Unspecified
(50.7693°N, 0.0000°E)
Time: 00:12:55
(UTC+00:00)

A-11 Canister half - Pass Details

Date: 25 June 2019
Orbit: 1526 x 1683 km, 47.3° (Epoch: 19 July)

Event Time Altitude Azimuth Distance (km) Brightness Sun altitude
Rises 05:47:26 0° 254° (WSW) 4,736 10.9 15.6°
Reaches altitude 10° 05:50:31 10° 253° (WSW) 3,736 10.5 16.1°
Maximum altitude 05:59:51 71° 172° (S) 1,607 9.4 17.5°
Drops below altitude 10° 06:09:04 10° 91° (E) 3,696 12.8 18.9°
Sets 06:12:07 0° 89° (E) 4,683 13.0 19.4°
